FW9002 Weather Reports


time (UTC)temp
F
wind
direction
speed
knots
gust
knots
rain 1hr
in
rain 24hr
in
rain mn
in
humidity
%
barometer
mb
20260502192324 87 278 2.6 2.6 0.00 0.00 0.00 20 1013.0
20260502191821 87 40 3.5 4.3 0.00 0.00 0.00 21 1012.9
20260502191319 87 91 0.9 0.9 0.00 0.00 0.00 21 1013.3
20260502190816 87 108 2.6 2.6 0.00 0.00 0.00 22 1013.2
20260502190313 86 81 1.7 1.7 0.00 0.00 0.00 20 1013.5
20260502185809 87 90 1.7 4.3 0.00 0.00 0.00 21 1013.2
20260502185305 86 110 1.7 2.6 0.00 0.00 0.00 21 1013.4
20260502184802 85 87 0.9 1.7 0.00 0.00 0.00 22 1013.5
20260502184257 85 118 1.7 1.7 0.00 0.00 0.00 23 1013.8
20260502183754 85 73 2.6 4.3 0.00 0.00 0.00 23 1014.0
20260502183250 84 186 3.5 5.2 0.00 0.00 0.00 23 1013.9
20260502182745 84 29 1.7 2.6 0.00 0.00 0.00 24 1014.0
20260502182241 84 113 3.5 4.3 0.00 0.00 0.00 24 1013.8
20260502181738 84 107 1.7 2.6 0.00 0.00 0.00 24 1014.2
20260502181237 84 99 0.9 1.7 0.00 0.00 0.00 24 1014.4
20260502180734 84 57 1.7 1.7 0.00 0.00 0.00 24 1014.2
20260502180232 83 73 2.6 4.3 0.00 0.00 0.00 25 1014.4
20260502170156 79 116 4.3 5.2 0.00 0.00 0.00 29 1014.9
20260502164142 79 83 2.6 2.6 0.00 0.00 0.00 30 1014.5
20260502163638 79 67 7.0 7.8 0.00 0.00 0.00 30 1014.6
20260502163135 78 72 5.2 7.8 0.00 0.00 0.00 31 1014.5
20260502162632 78 88 6.1 8.7 0.00 0.00 0.00 31 1014.6
20260502162129 78 103 3.5 5.2 0.00 0.00 0.00 31 1014.8
20260502161626 78 89 6.1 7.8 0.00 0.00 0.00 32 1014.7
20260502161123 77 43 4.3 5.2 0.00 0.00 0.00 32 1014.6
20260502160621 77 67 2.6 2.6 0.00 0.00 0.00 33 1014.8
20260502160120 77 93 5.2 7.0 0.00 0.00 0.00 33 1014.5
20260502152034 75 171 5.2 9.6 0.00 0.00 0.00 34 1014.3
20260502151531 74 20 5.2 7.0 0.00 0.00 0.00 35 1014.4
20260502151028 74 76 2.6 2.6 0.00 0.00 0.00 36 1014.5
20260502150526 74 130 7.0 9.6 0.00 0.00 0.00 35 1014.5
20260502130410 68 114 1.7 6.1 0.00 0.00 0.00 40 1012.7
20260502123353 67 101 3.5 6.1 0.00 0.00 0.00 41 1012.5
20260502122850 67 87 2.6 4.3 0.00 0.00 0.00 41 1012.1
20260502122345 67 138 2.6 5.2 0.00 0.00 0.00 41 1012.2
20260502121844 67 137 2.6 6.1 0.00 0.00 0.00 41 1012.1
20260502121341 66 55 2.6 4.3 0.00 0.00 0.00 41 1012.1
20260502120839 66 94 1.7 1.7 0.00 0.00 0.00 41 1012.2
20260502120334 63 121 2.6 2.6 0.00 0.00 0.00 42 1012.2
20260502115832 61 140 2.6 2.6 0.00 0.00 0.00 42 1012.1
20260502115329 58 93 1.7 2.6 0.00 0.00 0.00 42 1012.2
20260502114826 57 57 0.9 0.9 0.00 0.00 0.00 43 1012.4
20260502114323 57 53 0.0 0.0 0.00 0.00 0.00 43 1012.2
20260502113819 57 45 0.0 0.0 0.00 0.00 0.00 43 1012.1
20260502113317 57 34 0.0 0.0 0.00 0.00 0.00 43 1012.4
20260502112816 57 33 0.0 0.0 0.00 0.00 0.00 43 1012.5
20260502112312 57 3 0.0 0.0 0.00 0.00 0.00 44 1012.5
20260502111810 58 3 0.0 0.0 0.00 0.00 0.00 43 1012.4
20260502111307 58 3 0.0 0.0 0.00 0.00 0.00 42 1012.5
20260502110804 60 3 0.0 0.9 0.00 0.00 0.00 41 1012.5
20260502110302 60 173 0.9 0.9 0.00 0.00 0.00 38 1012.5
20260502105800 60 181 1.7 1.7 0.00 0.00 0.00 39 1012.0
20260502105256 59 154 0.9 0.9 0.00 0.00 0.00 39 1012.6
20260502104754 59 118 0.9 0.9 0.00 0.00 0.00 41 1012.6
20260502104251 59 91 0.0 0.0 0.00 0.00 0.00 40 1012.6
20260502103749 59 90 0.0 0.0 0.00 0.00 0.00 41 1012.2
20260502103246 59 90 0.0 0.0 0.00 0.00 0.00 41 1012.4
20260502102743 59 90 0.0 0.0 0.00 0.00 0.00 40 1012.0
20260502102239 59 90 0.0 0.0 0.00 0.00 0.00 40 1012.1
20260502101738 60 90 0.0 0.0 0.00 0.00 0.00 40 1012.0
20260502101235 60 91 0.0 0.0 0.00 0.00 0.00 39 1011.9
20260502100733 60 91 0.0 0.0 0.00 0.00 0.00 39 1012.0
20260502100232 60 90 0.0 0.0 0.00 0.00 0.00 39 1011.8
20260502091206 62 89 0.0 0.0 0.00 0.00 0.00 36 1011.8
20260502090703 62 89 0.0 0.0 0.00 0.00 0.00 35 1011.9
20260502090200 62 88 0.0 0.0 0.00 0.00 0.00 36 1011.8
20260502071055 68 89 0.0 0.0 0.00 0.00 0.00 31 1011.9
20260502070553 68 112 0.0 0.0 0.00 0.00 0.00 30 1012.2
20260502070051 68 114 0.9 0.9 0.00 0.00 0.00 30 1012.0
20260502065549 67 62 1.7 1.7 0.00 0.00 0.00 30 1011.9
20260502065047 67 73 0.0 0.9 0.00 0.00 0.00 31 1012.0
20260502064545 66 69 0.9 0.9 0.00 0.00 0.00 32 1011.9
20260502064042 67 32 0.9 0.9 0.00 0.00 0.00 31 1011.9
20260502063540 67 344 0.0 0.0 0.00 0.00 0.00 31 1011.9
20260502063037 67 344 0.0 0.0 0.00 0.00 0.00 30 1011.7
20260502062534 67 344 0.0 0.0 0.00 0.00 0.00 31 1011.7
20260502062032 67 344 0.0 0.0 0.00 0.00 0.00 30 1011.6
20260502061530 67 344 0.0 0.0 0.00 0.00 0.00 30 1011.7
20260502061027 68 344 0.0 0.0 0.00 0.00 0.00 30 1011.9
20260502060522 68 344 0.0 0.0 0.00 0.00 0.00 29 1011.5
20260502060019 68 344 0.0 0.0 0.00 0.00 0.00 30 1011.5
20260502055516 68 344 0.0 0.0 0.00 0.00 0.00 30 1011.7
20260502055015 68 344 0.0 0.0 0.00 0.00 0.00 30 1011.3
20260502054513 68 344 0.0 0.0 0.00 0.00 0.00 30 1011.3
20260502054010 68 344 0.0 0.0 0.00 0.00 0.00 30 1011.3
20260502053507 68 344 0.0 0.0 0.00 0.00 0.00 30 1011.2
20260502053005 69 344 0.0 0.0 0.00 0.00 0.00 29 1011.3
20260502052503 69 344 0.0 0.0 0.00 0.00 0.00 30 1011.4
20260502052001 69 344 0.0 0.0 0.00 0.00 0.00 29 1011.4
20260502051459 69 344 0.0 0.0 0.00 0.00 0.00 29 1010.9
20260502050955 69 344 0.0 0.0 0.00 0.00 0.00 29 1011.4
20260502050452 69 344 0.0 0.0 0.00 0.00 0.00 29 1011.2
20260502045949 70 346 0.0 0.0 0.00 0.00 0.00 29 1011.2
20260502045446 70 346 0.0 0.0 0.00 0.00 0.00 28 1011.1
20260502044943 70 346 0.0 0.0 0.00 0.00 0.00 28 1011.2
20260502044438 69 346 0.0 0.0 0.00 0.00 0.00 29 1011.0
20260502043936 69 346 0.0 0.0 0.00 0.00 0.00 29 1011.0
20260502043434 69 346 0.0 0.0 0.00 0.00 0.00 29 1010.9
20260502042933 68 346 0.0 0.0 0.00 0.00 0.00 30 1011.1
20260502042430 69 346 0.0 0.0 0.00 0.00 0.00 29 1010.9
20260502041927 69 346 0.0 0.0 0.00 0.00 0.00 29 1010.9
20260502041425 70 346 0.0 0.0 0.00 0.00 0.00 28 1010.9
20260502040922 71 346 0.0 0.0 0.00 0.00 0.00 28 1010.6
20260502040418 71 346 0.0 0.0 0.00 0.00 0.00 27 1010.6
20260502035915 72 346 0.0 0.0 0.00 0.00 0.00 27 1010.6
20260502035411 72 346 0.0 0.0 0.00 0.00 0.00 26 1010.4
20260502034909 72 346 0.0 0.0 0.00 0.00 0.00 26 1010.4
20260502034408 72 346 0.0 0.0 0.00 0.00 0.00 25 1010.4
20260502033905 72 346 0.0 0.0 0.00 0.00 0.00 26 1010.3
20260502033403 73 346 0.0 0.0 0.00 0.00 0.00 25 1010.1
20260502032859 73 346 0.0 0.0 0.00 0.00 0.00 25 1009.9
20260502032355 72 346 0.0 0.0 0.00 0.00 0.00 25 1010.1
20260502031853 73 346 0.0 0.0 0.00 0.00 0.00 25 1009.9
20260502031351 73 346 0.0 0.0 0.00 0.00 0.00 24 1010.0
20260502030849 74 346 0.0 0.0 0.00 0.00 0.00 24 1010.1
20260502030347 74 346 0.0 0.0 0.00 0.00 0.00 24 1009.8
20260502025844 74 346 0.0 0.0 0.00 0.00 0.00 24 1009.7
20260502025342 75 346 0.0 0.0 0.00 0.00 0.00 23 1009.7
20260502024839 75 346 0.0 0.0 0.00 0.00 0.00 23 1009.6
20260502024337 76 346 0.0 0.0 0.00 0.00 0.00 22 1009.6
20260502023835 76 348 0.0 0.0 0.00 0.00 0.00 22 1009.3
20260502023332 77 348 0.0 0.0 0.00 0.00 0.00 22 1009.6
20260502022830 77 348 0.0 0.0 0.00 0.00 0.00 21 1009.6
20260502022326 78 340 0.0 0.0 0.00 0.00 0.00 21 1009.3
20260502021823 78 340 0.0 0.0 0.00 0.00 0.00 20 1009.3
20260502021320 79 345 0.0 0.0 0.00 0.00 0.00 20 1009.3
20260502020817 79 354 0.0 0.0 0.00 0.00 0.00 19 1009.2
20260502020315 80 18 1.7 1.7 0.00 0.00 0.00 19 1009.0
20260502015812 80 327 0.0 0.0 0.00 0.00 0.00 19 1009.2
20260502015309 81 355 0.9 0.0 0.00 0.00 0.00 18 1009.1
20260502014806 82 296 1.7 1.7 0.00 0.00 0.00 18 1009.1
20260502014303 82 303 0.9 0.9 0.00 0.00 0.00 18 1009.1
20260502013759 83 279 0.9 0.9 0.00 0.00 0.00 17 1008.9
20260502013255 83 291 3.5 4.3 0.00 0.00 0.00 16 1009.0
20260502012751 84 296 2.6 4.3 0.00 0.00 0.00 17 1008.9
20260502012249 84 288 2.6 4.3 0.00 0.00 0.00 17 1008.7
20260502011746 84 278 1.7 1.7 0.00 0.00 0.00 17 1009.0
20260502011242 84 320 1.7 1.7 0.00 0.00 0.00 17 1008.8
20260502010740 84 22 0.0 0.0 0.00 0.00 0.00 17 1008.8
20260502010236 85 305 1.7 2.6 0.00 0.00 0.00 17 1008.8
20260502005733 85 358 2.6 4.3 0.00 0.00 0.00 16 1008.6
20260502005231 85 294 1.7 1.7 0.00 0.00 0.00 16 1008.5
20260502004728 85 12 1.7 4.3 0.00 0.00 0.00 16 1008.7
20260502004224 85 276 1.7 2.6 0.00 0.00 0.00 16 1008.7
20260502003722 85 301 1.7 1.7 0.00 0.00 0.00 16 1008.9
20260502003219 86 310 4.3 5.2 0.00 0.00 0.00 16 1008.6
20260502002714 86 4 0.9 1.7 0.00 0.00 0.00 17 1008.7
20260502002213 86 297 1.7 2.6 0.00 0.00 0.00 17 1008.7
20260502001709 86 314 0.9 0.9 0.00 0.00 0.00 17 1008.8
20260502001208 86 354 3.5 4.3 0.00 0.00 0.00 17 1008.7
20260502000704 86 299 4.3 7.0 0.00 0.00 0.00 17 1008.7
20260502000203 86 352 2.6 2.6 0.00 0.00 0.00 17 1008.7
20260501235652 86 309 1.7 2.6 0.00 0.00 0.00 17 1008.6
20260501235148 85 24 2.6 4.3 0.00 0.00 0.00 18 1008.8
20260501234644 86 355 4.3 7.8 0.00 0.00 0.00 18 1008.5
20260501234142 86 5 2.6 4.3 0.00 0.00 0.00 17 1008.8
20260501233639 87 16 3.5 7.0 0.00 0.00 0.00 17 1008.7
20260501233136 87 12 1.7 1.7 0.00 0.00 0.00 17 1008.6
20260501232632 87 19 0.9 0.9 0.00 0.00 0.00 17 1008.7
20260501232130 87 293 2.6 2.6 0.00 0.00 0.00 17 1008.6
20260501231627 87 5 2.6 4.3 0.00 0.00 0.00 17 1008.7
20260501231126 87 291 1.7 2.6 0.00 0.00 0.00 17 1008.9
20260501230624 87 1 1.7 1.7 0.00 0.00 0.00 17 1008.7
20260501230122 87 320 1.7 1.7 0.00 0.00 0.00 17 1008.6
20260501225619 87 261 0.9 0.9 0.00 0.00 0.00 18 1008.7
20260501225115 87 317 2.6 2.6 0.00 0.00 0.00 18 1009.0
20260501224612 87 312 6.1 7.0 0.00 0.00 0.00 17 1009.0
20260501224109 86 358 2.6 4.3 0.00 0.00 0.00 17 1009.0
20260501223606 86 17 1.7 1.7 0.00 0.00 0.00 18 1008.9
20260501223102 86 296 2.6 5.2 0.00 0.00 0.00 19 1009.1
20260501222558 85 259 2.6 2.6 0.00 0.00 0.00 17 1009.1
20260501222055 86 245 4.3 4.3 0.00 0.00 0.00 18 1009.1
20260501221552 86 298 2.6 5.2 0.00 0.00 0.00 18 1009.3
20260501221049 86 299 1.7 1.7 0.00 0.00 0.00 18 1009.6
20260501220547 86 300 3.5 4.3 0.00 0.00 0.00 18 1009.3
20260501220044 85 310 0.9 0.9 0.00 0.00 0.00 18 1009.5
20260501215540 86 308 3.5 5.2 0.00 0.00 0.00 18 1009.6
20260501215035 86 303 2.6 4.3 0.00 0.00 0.00 18 1009.7
20260501214531 87 284 2.6 2.6 0.00 0.00 0.00 18 1009.6
20260501214027 86 298 2.6 2.6 0.00 0.00 0.00 18 1009.7
20260501213524 85 27 1.7 2.6 0.00 0.00 0.00 19 1009.7
20260501213020 84 276 0.9 0.9 0.00 0.00 0.00 19 1010.0
20260501212516 85 264 6.1 7.0 0.00 0.00 0.00 19 1010.0
20260501212014 85 282 1.7 1.7 0.00 0.00 0.00 19 1009.9
20260501211510 84 1 0.0 0.9 0.00 0.00 0.00 19 1010.2
20260501211009 84 309 2.6 1.7 0.00 0.00 0.00 19 1010.3
20260501210504 84 300 1.7 1.7 0.00 0.00 0.00 20 1010.3
20260501210001 85 330 1.7 1.7 0.00 0.00 0.00 20 1010.1
20260501205458 84 286 2.6 2.6 0.00 0.00 0.00 19 1010.5
20260501204955 84 264 0.9 1.7 0.00 0.00 0.00 19 1010.4
20260501204451 83 304 1.7 1.7 0.00 0.00 0.00 20 1010.7
20260501203947 84 299 3.5 5.2 0.00 0.00 0.00 19 1010.6
20260501203444 84 199 2.6 2.6 0.00 0.00 0.00 19 1010.6
20260501202942 84 301 2.6 2.6 0.00 0.00 0.00 19 1010.5
20260501202438 84 330 0.9 0.9 0.00 0.00 0.00 20 1010.4
20260501201935 84 311 5.2 6.1 0.00 0.00 0.00 19 1010.9
20260501201432 84 300 0.9 0.9 0.00 0.00 0.00 20 1011.0
20260501200929 82 275 2.6 2.6 0.00 0.00 0.00 20 1010.9
20260501200426 82 210 2.6 2.6 0.00 0.00 0.00 20 1010.9
20260501195924 82 235 3.5 4.3 0.00 0.00 0.00 20 1010.9
20260501195420 82 237 4.3 6.1 0.00 0.00 0.00 21 1010.9
20260501194915 81 287 3.5 4.3 0.00 0.00 0.00 21 1011.1
20260501194412 80 159 0.9 0.9 0.00 0.00 0.00 22 1011.2
20260501193908 81 263 4.3 5.2 0.00 0.00 0.00 22 1011.1
20260501193406 82 220 2.6 2.6 0.00 0.00 0.00 21 1011.2
20260501192904 82 327 2.6 2.6 0.00 0.00 0.00 22 1011.3